W6MAF Weather Reports


time (UTC)temp
F
wind
direction
speed
knots
gust
knots
rain 1hr
in
rain 24hr
in
rain mn
in
humidity
%
barometer
mb
20210518205918 88 323 7.8 6.1 0.00 0.00 0.00 9 1014.5
20210518205421 88 0 8.7 7.0 0.00 0.00 0.00 9 1014.5
20210518204923 89 336 9.6 9.6 0.00 0.00 0.00 9 1014.5
20210518204426 89 316 9.6 6.1 0.00 0.00 0.00 8 1014.6
20210518203928 89 307 4.3 4.3 0.00 0.00 0.00 9 1014.6
20210518203427 88 271 7.8 5.2 0.00 0.00 0.00 9 1014.6
20210518202931 88 293 9.6 4.3 0.00 0.00 0.00 9 1014.6
20210518202432 87 307 6.1 7.8 0.00 0.00 0.00 10 1014.8
20210518201933 87 308 9.6 10.4 0.00 0.00 0.00 10 1014.8
20210518201436 87 326 5.2 9.6 0.00 0.00 0.00 10 1014.8
20210518200437 87 312 8.7 11.3 0.00 0.00 0.00 11 1014.9
20210518195941 86 280 7.8 9.6 0.00 0.00 0.00 11 1015.0
20210518195442 86 321 7.8 10.4 0.00 0.00 0.00 11 1015.0
20210518194945 86 25 7.0 11.3 0.00 0.00 0.00 11 1014.9
20210518194446 86 321 7.8 7.8 0.00 0.00 0.00 12 1015.0
20210518193949 86 0 13.9 9.6 0.00 0.00 0.00 11 1015.1
20210518193448 86 353 6.1 7.0 0.00 0.00 0.00 12 1015.2
20210518192951 86 336 7.0 11.3 0.00 0.00 0.00 11 1015.1
20210518192452 86 343 8.7 10.4 0.00 0.00 0.00 12 1015.2
20210518191955 85 347 9.6 7.8 0.00 0.00 0.00 12 1015.3
20210518191458 84 315 7.8 7.8 0.00 0.00 0.00 12 1015.3
20210518190959 83 325 6.1 8.7 0.00 0.00 0.00 13 1015.3
20210518190458 83 330 7.8 7.8 0.00 0.00 0.00 13 1015.5
20210518190002 83 338 12.2 12.2 0.00 0.00 0.00 13 1015.5
20210518185503 83 336 9.6 7.8 0.00 0.00 0.00 13 1015.5
20210518185005 83 335 9.6 6.1 0.00 0.00 0.00 13 1015.5
20210518184508 83 7 11.3 11.3 0.00 0.00 0.00 13 1015.3
20210518184010 83 295 0.0 7.0 0.00 0.00 0.00 13 1015.5
20210518183509 82 312 8.7 7.0 0.00 0.00 0.00 14 1015.5
20210518183011 82 342 5.2 6.1 0.00 0.00 0.00 14 1015.5
20210518182514 82 336 13.0 7.8 0.00 0.00 0.00 14 1015.6
20210518182017 82 295 8.7 5.2 0.00 0.00 0.00 14 1015.6
20210518181519 81 335 10.4 8.7 0.00 0.00 0.00 15 1015.6
20210518181021 81 338 9.6 13.0 0.00 0.00 0.00 15 1015.5
20210518180520 81 4 10.4 11.3 0.00 0.00 0.00 15 1015.6
20210518180022 80 325 10.4 15.6 0.00 0.00 0.00 15 1015.6
20210518175524 80 332 8.7 4.3 0.00 0.00 0.00 15 1015.6
20210518175027 80 3 10.4 11.3 0.00 0.00 0.00 15 1015.6
20210518174529 80 342 7.8 6.1 0.00 0.00 0.00 16 1015.6
20210518174031 80 17 5.2 3.5 0.00 0.00 0.00 16 1015.6
20210518173531 80 298 6.1 0.0 0.00 0.00 0.00 16 1015.7
20210518173033 79 326 10.4 7.8 0.00 0.00 0.00 17 1015.7
20210518172535 79 359 10.4 7.0 0.00 0.00 0.00 17 1015.7
20210518172038 79 359 9.6 7.8 0.00 0.00 0.00 17 1015.8
20210518171541 79 357 9.6 11.3 0.00 0.00 0.00 17 1015.8
20210518171042 78 339 9.6 7.8 0.00 0.00 0.00 18 1015.8
20210518170541 78 339 7.0 7.0 0.00 0.00 0.00 18 1015.8
20210518170045 77 329 11.3 9.6 0.00 0.00 0.00 19 1015.9
20210518165547 77 342 11.3 11.3 0.00 0.00 0.00 19 1015.9
20210518165049 77 10 9.6 7.8 0.00 0.00 0.00 19 1015.8
20210518164552 77 338 9.6 9.6 0.00 0.00 0.00 20 1015.8
20210518164053 77 301 6.1 12.2 0.00 0.00 0.00 21 1015.9
20210518163551 76 332 8.7 8.7 0.00 0.00 0.00 21 1015.9
20210518163053 76 333 12.2 11.3 0.00 0.00 0.00 21 1015.9
20210518162555 76 297 9.6 7.8 0.00 0.00 0.00 21 1016.0
20210518162057 76 318 8.7 7.0 0.00 0.00 0.00 22 1016.0
20210518161600 75 329 6.1 3.5 0.00 0.00 0.00 24 1015.9
20210518161102 75 311 7.8 7.8 0.00 0.00 0.00 24 1016.0
20210518160602 74 340 7.0 7.8 0.00 0.00 0.00 25 1016.0
20210518160104 73 343 5.2 5.2 0.00 0.00 0.00 26 1016.0
20210518155606 73 332 6.1 10.4 0.00 0.00 0.00 27 1016.0
20210518155109 72 325 9.6 12.2 0.00 0.00 0.00 28 1016.0
20210518154611 71 309 7.0 7.8 0.00 0.00 0.00 31 1015.9
20210518154114 70 311 8.7 11.3 0.00 0.00 0.00 33 1016.0
20210518153612 69 343 7.8 8.7 0.00 0.00 0.00 36 1016.0
20210518153115 68 73 6.1 5.2 0.00 0.00 0.00 40 1016.0
20210518152617 68 108 1.7 0.0 0.00 0.00 0.00 41 1016.1
20210518152120 67 63 0.9 4.3 0.00 0.00 0.00 42 1016.1
20210518151624 67 65 1.7 5.2 0.00 0.00 0.00 44 1016.0
20210518151125 66 59 2.6 7.0 0.00 0.00 0.00 46 1016.0
20210518150623 66 66 4.3 3.5 0.00 0.00 0.00 46 1015.9
20210518150126 65 104 0.0 0.0 0.00 0.00 0.00 51 1016.0
20210518145629 64 83 1.7 3.5 0.00 0.00 0.00 54 1016.0
20210518145134 63 93 4.3 2.6 0.00 0.00 0.00 59 1015.9
20210518145130 63 93 4.3 2.6 0.00 0.00 0.00 59 1015.9
20210518144635 63 73 0.0 0.0 0.00 0.00 0.00 64 1015.8
20210518144135 62 73 0.0 0.0 0.00 0.00 0.00 72 1015.8
20210518143634 61 73 0.0 0.0 0.00 0.00 0.00 85 1015.7
20210518143137 60 73 0.0 0.0 0.00 0.00 0.00 92 1015.8
20210518142640 59 73 0.0 0.0 0.00 0.00 0.00 99 1015.7
20210518142141 58 120 0.0 2.6 0.00 0.00 0.00 100 1015.7
20210518141643 57 86 0.9 3.5 0.00 0.00 0.00 100 1015.6
20210518141145 55 87 4.3 7.0 0.00 0.00 0.00 100 1015.5
20210518140645 54 131 2.6 0.9 0.00 0.00 0.00 100 1015.5
20210518140148 53 143 4.3 6.1 0.00 0.00 0.00 100 1015.3
20210518135650 52 135 5.2 4.3 0.00 0.00 0.00 100 1015.3
20210518135152 52 150 4.3 4.3 0.00 0.00 0.00 100 1015.3
20210518134654 50 136 5.2 3.5 0.00 0.00 0.00 100 1015.2
20210518134200 0 169 7.8 0.0 0.00 0.00 0.00 100 1015.2
20210518134156 49 169 7.8 7.8 0.00 0.00 0.00 100 1015.2
20210518133158 48 163 0.0 0.0 0.00 0.00 0.00 100 1015.2
20210518132700 48 186 2.6 0.0 0.00 0.00 0.00 100 1015.2
20210518132202 47 167 0.0 2.6 0.00 0.00 0.00 100 1015.2
20210518131705 47 180 0.0 0.0 0.00 0.00 0.00 100 1015.2
20210518131207 47 210 0.0 4.3 0.00 0.00 0.00 100 1015.1
20210518130706 47 194 0.0 0.0 0.00 0.00 0.00 100 1015.2
20210518130209 47 194 0.0 0.0 0.00 0.00 0.00 100 1015.1
20210518125710 47 194 0.0 0.0 0.00 0.00 0.00 100 1015.1
20210518125212 47 211 6.1 5.2 0.00 0.00 0.00 100 1015.2
20210518124715 47 184 4.3 0.0 0.00 0.00 0.00 100 1015.1
20210518124217 47 221 7.8 7.8 0.00 0.00 0.00 100 1015.2
20210518123716 47 236 5.2 3.5 0.00 0.00 0.00 100 1015.1
20210518123218 47 190 7.0 5.2 0.00 0.00 0.00 100 1015.0
20210518122721 47 205 7.0 6.1 0.00 0.00 0.00 100 1015.1
20210518121725 47 224 3.5 7.8 0.00 0.00 0.00 100 1015.1
20210518121230 47 231 4.3 8.7 0.00 0.00 0.00 100 1015.0
20210518120727 47 86 6.1 0.0 0.00 0.00 0.00 100 1015.0
20210518120229 47 97 5.2 5.2 0.00 0.00 0.00 100 1015.0
20210518115732 47 225 7.8 7.0 0.00 0.00 0.00 100 1015.0
20210518115234 47 203 7.0 4.3 0.00 0.00 0.00 100 1014.8
20210518114736 47 103 4.3 4.3 0.00 0.00 0.00 100 1014.8
20210518114240 47 235 7.8 10.4 0.00 0.00 0.00 100 1014.8
20210518113738 47 238 7.8 6.1 0.00 0.00 0.00 100 1014.6
20210518113241 47 257 3.5 7.0 0.00 0.00 0.00 100 1014.6
20210518112742 47 240 9.6 12.2 0.00 0.00 0.00 100 1014.5
20210518112245 47 239 9.6 7.0 0.00 0.00 0.00 100 1014.6
20210518111749 47 245 10.4 13.0 0.00 0.00 0.00 100 1014.6
20210518110748 48 248 9.6 7.8 0.00 0.00 0.00 100 1014.6
20210518110251 48 232 11.3 14.8 0.00 0.00 0.00 100 1014.8
20210518105753 48 240 9.6 14.8 0.00 0.00 0.00 100 1014.8
20210518105255 48 240 10.4 12.2 0.00 0.00 0.00 100 1014.8
20210518104758 48 229 8.7 7.8 0.00 0.00 0.00 100 1014.8
20210518104301 48 253 9.6 7.0 0.00 0.00 0.00 100 1014.8
20210518103800 48 212 10.4 15.6 0.00 0.00 0.00 100 1014.8
20210518103301 48 235 10.4 10.4 0.00 0.00 0.00 100 1014.8
20210518102804 48 253 12.2 12.2 0.00 0.00 0.00 100 1014.8
20210518102306 48 235 11.3 13.0 0.00 0.00 0.00 100 1014.8
20210518101807 48 235 10.4 9.6 0.00 0.00 0.00 100 1014.6
20210518101309 48 87 13.0 7.0 0.00 0.00 0.00 100 1014.6
20210518100808 48 262 15.6 10.4 0.00 0.00 0.00 100 1014.6
20210518100310 48 229 13.0 11.3 0.00 0.00 0.00 100 1014.6
20210518095813 48 231 12.2 12.2 0.00 0.00 0.00 100 1014.5
20210518095315 48 232 13.9 17.4 0.00 0.00 0.00 100 1014.5
20210518094817 48 239 17.4 15.6 0.00 0.00 0.00 100 1014.6
20210518094320 48 212 14.8 15.6 0.00 0.00 0.00 100 1014.6
20210518093818 48 232 14.8 12.2 0.00 0.00 0.00 100 1014.5
20210518093320 48 219 14.8 10.4 0.00 0.00 0.00 100 1014.5
20210518092823 48 238 14.8 13.0 0.00 0.00 0.00 100 1014.6
20210518092325 48 249 13.9 10.4 0.00 0.00 0.00 100 1014.8
20210518091827 48 226 14.8 13.0 0.00 0.00 0.00 100 1014.9
20210518091330 48 218 10.4 12.2 0.00 0.00 0.00 100 1014.8
20210518090829 48 245 15.6 15.6 0.00 0.00 0.00 100 1014.9
20210518090331 48 253 16.5 13.9 0.00 0.00 0.00 100 1014.8
20210518085834 48 225 13.0 16.5 0.00 0.00 0.00 100 1014.9
20210518085336 49 240 16.5 17.4 0.00 0.00 0.00 100 1014.9
20210518084838 49 231 15.6 19.1 0.00 0.00 0.00 100 1015.0
20210518084341 49 245 15.6 14.8 0.00 0.00 0.00 100 1015.1
20210518083841 49 242 13.9 16.5 0.00 0.00 0.00 100 1015.0
20210518083342 49 243 14.8 15.6 0.00 0.00 0.00 100 1015.0
20210518082844 49 235 14.8 17.4 0.00 0.00 0.00 100 1015.0
20210518082346 49 233 17.4 16.5 0.00 0.00 0.00 100 1015.0
20210518081849 49 221 16.5 20.9 0.00 0.00 0.00 100 1015.0
20210518081351 49 250 19.1 19.1 0.00 0.00 0.00 100 1015.0
20210518080850 49 250 17.4 18.2 0.00 0.00 0.00 100 1015.1
20210518080354 49 264 16.5 10.4 0.00 0.00 0.00 100 1015.2
20210518075855 49 239 17.4 13.9 0.00 0.00 0.00 100 1015.3
20210518075358 49 243 14.8 16.5 0.00 0.00 0.00 100 1015.2
20210518074900 49 249 17.4 11.3 0.00 0.00 0.00 100 1015.3
20210518074402 49 211 15.6 14.8 0.00 0.00 0.00 100 1015.5
20210518073933 49 264 13.9 15.6 0.00 0.00 0.00 100 1015.5
20210518073901 49 264 13.9 15.6 0.00 0.00 0.00 100 1015.5
20210518073402 49 236 13.0 16.5 0.00 0.00 0.00 100 1015.2
20210518072905 49 233 13.9 11.3 0.00 0.00 0.00 100 1015.2
20210518072407 49 239 12.2 16.5 0.00 0.00 0.00 100 1015.1
20210518071909 49 239 13.0 13.9 0.00 0.00 0.00 100 1015.0
20210518071412 49 204 13.9 13.0 0.00 0.00 0.00 100 1015.0
20210518070911 49 262 12.2 12.2 0.00 0.00 0.00 100 1015.0
20210518070414 49 228 13.9 13.0 0.00 0.00 0.00 100 1015.0
20210518065916 49 238 14.8 20.0 0.00 0.00 0.00 100 1015.0
20210518065418 49 250 14.8 13.9 0.00 0.00 0.00 100 1015.1
20210518064922 49 242 14.8 13.0 0.00 0.00 0.00 100 1015.1
20210518064422 49 257 14.8 17.4 0.00 0.00 0.00 100 1015.1
20210518063922 49 236 14.8 16.5 0.00 0.00 0.00 100 1015.1
20210518063424 49 243 13.0 17.4 0.00 0.00 0.00 100 1015.2
20210518062926 49 250 14.8 13.9 0.00 0.00 0.00 100 1015.3
20210518062429 49 242 13.9 18.2 0.00 0.00 0.00 100 1015.5
20210518061931 49 243 15.6 16.5 0.00 0.00 0.00 100 1015.5
20210518061435 49 214 15.6 12.2 0.00 0.00 0.00 100 1015.5
20210518060932 49 263 13.9 13.9 0.00 0.00 0.00 100 1015.6
20210518060435 49 240 12.2 12.2 0.00 0.00 0.00 100 1015.6
20210518055937 49 229 13.0 11.3 0.00 0.00 0.00 100 1015.7
20210518055440 49 240 14.8 13.9 0.00 0.00 0.00 100 1015.8
20210518054943 49 236 13.0 13.0 0.00 0.00 0.00 100 1015.8
20210518054444 49 239 13.0 13.9 0.00 0.00 0.00 100 1015.7
20210518053944 49 242 13.0 14.8 0.00 0.00 0.00 100 1015.8
20210518053445 49 250 13.0 10.4 0.00 0.00 0.00 100 1015.7
20210518052948 49 256 13.0 11.3 0.00 0.00 0.00 100 1015.7
20210518052450 49 232 14.8 13.9 0.00 0.00 0.00 100 1015.6
20210518051952 49 253 13.0 13.0 0.00 0.00 0.00 100 1015.7
20210518051455 49 235 13.9 10.4 0.00 0.00 0.00 100 1015.7
20210518050954 49 255 12.2 9.6 0.00 0.00 0.00 100 1015.8
20210518050457 49 229 13.9 9.6 0.00 0.00 0.00 100 1015.7
20210518050000 49 248 14.8 15.6 0.00 0.00 0.00 100 1015.7
20210518045500 49 246 14.8 13.0 0.00 0.00 0.00 100 1015.7
20210518045001 50 219 12.2 14.8 0.00 0.00 0.00 100 1015.7
20210518044504 50 246 13.9 11.3 0.00 0.00 0.00 100 1015.8
20210518044003 50 239 13.0 15.6 0.00 0.00 0.00 100 1015.7
20210518043505 50 248 12.2 13.0 0.00 0.00 0.00 100 1015.6
20210518043007 50 250 14.8 17.4 0.00 0.00 0.00 100 1015.6
20210518042510 50 270 14.8 13.0 0.00 0.00 0.00 100 1015.5
20210518042012 50 266 13.0 9.6 0.00 0.00 0.00 100 1015.6
20210518041515 50 214 16.5 12.2 0.00 0.00 0.00 100 1015.3
20210518041013 50 243 13.9 14.8 0.00 0.00 0.00 100 1015.3
20210518040516 50 257 14.8 17.4 0.00 0.00 0.00 100 1015.3
20210518040018 50 242 13.9 14.8 0.00 0.00 0.00 100 1015.3
20210518035520 50 257 12.2 12.2 0.00 0.00 0.00 100 1015.0
20210518035023 50 246 15.6 13.0 0.00 0.00 0.00 100 1015.1
20210518034528 50 246 14.8 13.9 0.00 0.00 0.00 100 1015.1
20210518034025 50 238 16.5 14.8 0.00 0.00 0.00 100 1015.0
20210518033526 50 257 14.8 15.6 0.00 0.00 0.00 100 1015.1
20210518033029 50 239 13.9 15.6 0.00 0.00 0.00 100 1015.0
20210518032532 50 195 15.6 19.1 0.00 0.00 0.00 100 1014.9
20210518032032 51 228 15.6 11.3 0.00 0.00 0.00 100 1014.9
20210518031536 51 242 16.5 11.3 0.00 0.00 0.00 100 1014.9
20210518031033 51 222 18.2 16.5 0.00 0.00 0.00 100 1014.9
20210518030534 51 249 18.2 20.0 0.00 0.00 0.00 100 1014.9
20210518030037 51 240 17.4 18.2 0.00 0.00 0.00 100 1014.8
20210518025540 51 217 18.2 17.4 0.00 0.00 0.00 100 1014.8
20210518025041 51 245 17.4 14.8 0.00 0.00 0.00 100 1014.6
20210518024544 52 232 19.1 17.4 0.00 0.00 0.00 99 1014.5
20210518024043 52 225 20.0 15.6 0.00 0.00 0.00 98 1014.6
20210518023545 52 246 14.8 19.1 0.00 0.00 0.00 97 1014.8
20210518023047 52 239 14.8 14.8 0.00 0.00 0.00 96 1014.8
20210518022551 53 238 15.6 20.0 0.00 0.00 0.00 95 1014.6
20210518021555 54 243 15.6 19.1 0.00 0.00 0.00 92 1014.5
20210518021053 54 228 16.5 15.6 0.00 0.00 0.00 90 1014.5
20210518020555 55 236 17.4 18.2 0.00 0.00 0.00 88 1014.4
20210518020058 55 255 15.6 13.0 0.00 0.00 0.00 86 1014.4
20210518015559 56 238 16.5 23.5 0.00 0.00 0.00 84 1014.3
20210518015104 56 242 16.5 8.7 0.00 0.00 0.00 84 1014.2
20210518014604 57 239 13.9 14.8 0.00 0.00 0.00 82 1014.3
20210518014104 57 236 14.8 15.6 0.00 0.00 0.00 80 1014.3
20210518013606 58 219 13.9 14.8 0.00 0.00 0.00 80 1014.3
20210518013109 57 238 13.9 13.0 0.00 0.00 0.00 80 1014.4
20210518012610 58 236 13.9 15.6 0.00 0.00 0.00 79 1014.4
20210518012112 58 226 14.8 18.2 0.00 0.00 0.00 78 1014.4
20210518011616 58 232 14.8 12.2 0.00 0.00 0.00 77 1014.4
20210518011114 59 242 17.4 17.4 0.00 0.00 0.00 77 1014.4
20210518010617 59 235 16.5 14.8 0.00 0.00 0.00 76 1014.5
20210518010118 59 240 14.8 13.9 0.00 0.00 0.00 75 1014.5
20210518005622 60 235 16.5 20.0 0.00 0.00 0.00 73 1014.5
20210518005123 60 228 15.6 13.0 0.00 0.00 0.00 73 1014.4
20210518004627 60 250 16.5 14.8 0.00 0.00 0.00 72 1014.4
20210518004125 60 201 13.9 12.2 0.00 0.00 0.00 72 1014.4
20210518003632 0 236 19.1 13.9 0.00 0.00 0.00 71 1014.4
20210518003628 60 236 19.1 13.9 0.00 0.00 0.00 71 1014.4
20210518003130 61 228 16.5 13.0 0.00 0.00 0.00 70 1014.4
20210518002633 61 231 14.8 16.5 0.00 0.00 0.00 70 1014.4
20210518002134 61 229 15.6 11.3 0.00 0.00 0.00 70 1014.4
20210518001636 61 245 15.6 18.2 0.00 0.00 0.00 69 1014.4
20210518001136 61 235 18.2 17.4 0.00 0.00 0.00 68 1014.4
20210518000140 62 240 16.5 15.6 0.00 0.00 0.00 66 1014.4
20210517235642 62 195 14.8 16.5 0.00 0.00 0.00 67 1014.3
20210517235144 62 236 17.4 20.9 0.00 0.00 0.00 61 1014.3
20210517234146 62 229 18.2 20.0 0.00 0.00 0.00 60 1014.3
20210517233648 62 228 18.2 19.1 0.00 0.00 0.00 60 1014.3
20210517233151 63 240 20.0 15.6 0.00 0.00 0.00 58 1014.3
20210517232653 63 200 17.4 21.7 0.00 0.00 0.00 64 1014.4
20210517232155 63 239 17.4 20.0 0.00 0.00 0.00 63 1014.4
20210517231658 63 225 18.2 17.4 0.00 0.00 0.00 62 1014.4
20210517231157 64 256 19.1 13.9 0.00 0.00 0.00 54 1014.4
20210517230659 64 222 20.0 21.7 0.00 0.00 0.00 53 1014.4
20210517230201 65 236 14.8 16.5 0.00 0.00 0.00 53 1014.4
20210517225703 65 233 15.6 13.0 0.00 0.00 0.00 51 1014.5
20210517225207 65 226 15.6 19.1 0.00 0.00 0.00 57 1014.5
20210517224708 65 217 15.6 17.4 0.00 0.00 0.00 57 1014.5
20210517224206 65 217 17.4 15.6 0.00 0.00 0.00 56 1014.4
20210517223709 66 232 18.2 15.6 0.00 0.00 0.00 55 1014.6
20210517223211 67 228 17.4 13.0 0.00 0.00 0.00 53 1014.8
20210517222713 67 231 14.8 15.6 0.00 0.00 0.00 53 1014.8
20210517222214 67 248 19.1 16.5 0.00 0.00 0.00 52 1014.9
20210517221717 67 235 17.4 18.2 0.00 0.00 0.00 52 1014.9
20210517221216 67 211 14.8 10.4 0.00 0.00 0.00 52 1014.9
20210517220718 67 225 13.9 19.1 0.00 0.00 0.00 52 1014.9
20210517220220 68 219 16.5 13.0 0.00 0.00 0.00 50 1015.0
20210517215725 68 232 17.4 14.8 0.00 0.00 0.00 51 1015.0
20210517215225 68 212 19.1 18.2 0.00 0.00 0.00 50 1015.1
20210517214727 68 236 16.5 14.8 0.00 0.00 0.00 50 1015.0
20210517214226 68 236 17.4 20.0 0.00 0.00 0.00 50 1015.1
20210517213729 68 236 17.4 14.8 0.00 0.00 0.00 49 1015.1
20210517213231 68 252 11.3 15.6 0.00 0.00 0.00 49 1015.1
20210517212733 68 225 16.5 17.4 0.00 0.00 0.00 49 1015.1
20210517212237 68 193 14.8 9.6 0.00 0.00 0.00 48 1015.1
20210517211738 68 246 12.2 14.8 0.00 0.00 0.00 49 1015.2
20210517211237 68 219 16.5 13.9 0.00 0.00 0.00 49 1015.2
20210517210739 68 236 12.2 13.0 0.00 0.00 0.00 48 1015.3
20210517210242 69 232 14.8 15.6 0.00 0.00 0.00 47 1015.3